Location: Grasslands National Park East Block
(49.0708°N, 106.5295°W)
Time: 15:13:43
(UTC-06:00)

deb Explorer IX - Visible Passes

Search period start: 15 September 2019 00:00
Search period end: 25 September 2019 00:00
Orbit: 543 x 1107 km, 38.8° (Epoch: 14 September)

Date Brightness Start Highest point End Pass type
(mag) Time Alt. Az. Time Alt. Az. Time Alt. Az.
15 Sep ? 04:55:43 14° S 04:56:48 15° SSE 04:59:13 10° SE visible
16 Sep ? 04:34:58 16° SSE 04:34:58 16° SSE 04:37:29 10° SE visible
17 Sep ? 04:14:12 15° SSE 04:14:12 15° SSE 04:15:45 10° SE visible
17 Sep ? 05:55:46 10° SW 05:59:01 21° S 06:02:06 10° SE visible
18 Sep ? 03:53:27 12° SE 03:53:27 12° SE 03:54:02 10° SE visible
18 Sep ? 05:34:50 14° SW 05:37:08 21° S 05:40:18 10° SE visible
19 Sep ? 05:14:06 19° SSW 05:15:16 22° S 05:18:31 10° SE visible
20 Sep ? 04:53:25 22° S 04:53:25 22° S 04:56:44 10° SE visible
21 Sep ? 04:32:45 20° SSE 04:32:45 20° SSE 04:34:59 10° SE visible
21 Sep ? 06:15:14 10° SW 06:17:23 13° SSW 06:19:28 10° S visible
22 Sep ? 04:12:10 15° SE 04:12:10 15° SE 04:13:14 10° SE visible
22 Sep ? 05:53:33 11° SW 05:55:30 14° SSW 05:57:41 10° S visible
23 Sep ? 05:33:03 14° SSW 05:33:37 14° SSW 05:35:56 10° S visible
24 Sep ? 05:12:37 14° SSW 05:12:37 14° SSW 05:14:11 10° S visible
